Back to catalog

USA 352

AliveMilitaryVLEO
NORAD 59288·PAYLOAD·🇺🇸 United States

Launched Mar 21, 2024 from Wallops Flight Facility

Loading…

Next Passes (next 24 hours)

TLE

StaleSource: Mike McCants

Epoch: Mar 12, 2026, 18:36 UTC

1 59288U 24053A   26071.77543472 0.00005000  00000-0  91679-4 0    05
2 59288  50.0103  30.1093 0005000 140.6283 219.3715 15.48598751    09

Track USA 352 in real time with AllMySat

Download on the App Store